Showing default

GEISAT PRECURSOR, 56934

Orbit data source: Space-Track

GEISAT PRECURSOR, 56934 is a payload satellite owned by Satlantis (ES) in SSO that was launched on Mon, 12 Jun 2023 UTC via an FALCON 9 launch vehicle from the Air Force Western Test Range (AFWTR). Payload-class satellites include a variety of spacecraft equipped with specific instruments for various scientific and technological missions. These include communications satellites like Starlink; space stations such as the ISS; scientific satellites like the Hubble; Earth observation satellites from companies like Planet Labs, Umbra, and HawkEye 360; GPS; miniature CubeSats for education and research; and military/defense satellites.

Loading next visibility...
Identifier
56934, 2023-084C
Orbit
SSO
Country
Flag of ESES / SPN
Related business
Manufacturer
NanoAvionics
Mission
Operational Commercial Imaging
Bus & Motor
CUBESAT 16U M16P, Unknown motor
Mass
~20 kg wet, ~20 kg dry
Launch date (UTC)
2023-06-12 (3 years ago)
Launch vehicle
FALCON 9
Launch site
Air Force Western Test Range (AFWTR)
Object type
Payload
Rocket body
Debris
Shape & HBR
Box, 1.0 m
Radar Cross Section
0.100 m², Medium (>0.1 m² and < 1m²)

Expand to show TLE details & history
Last TLE update: 22 hours ago

TLE from 22 hours ago
0 GEISAT PRECURSOR
1 56934U 23084C   26172.52223090  .00005734  00000-0  17300-3 0  9998
2 56934  97.6229 313.6181 0004571 340.4003  19.7063 15.34700277168195
Epoch: 2026-06-21T12:32Z
TLE epoch observation values (Epoch: 2026-06-21T12:32:00.749Z)
Latitude
-0.00005°
Longitude
-144.10631°
Altitude
461.971 km
Speed
7.637 km/s
True Right ascension
20h 54m 28s
True Declination
0° 00' 00"
Sunlit
Object was in full shadow at epoch
Visualization orbit readout
Latitude
Unknown
Longitude
Unknown
Altitude
Unknown
Speed
Unknown
Apparent Right ascension
Unknown
Apparent Declination
Unknown
Sunlit
N/A
Visualization observer readout
Local Sidereal Time
21:45:15
Azimuth
Unknown
Elevation
Unknown
Doppler factor
Unknown
Orbital elements
Apogee altitude
461.892 km
Perigee altitude
455.641 km
Semi-major axis
6,836.904 km
Eccentricity
0.00046
Inclination
97.6229°
RAAN
313.6181°
Arg. of periapsis
340.4003°
True anomaly
19.72397°
Mean anomaly
19.7063°
Eccentric anomaly
19.71514°
Mean motion
3.83932 °/min
Orbital period
93.77 mins
BSTAR
0.000173
Loading maneuver chart data...
Computing Atmospheric mass density...

Documentation

Showing up to 5 results
|